TimeCST,TemperatureF,Dew PointF,Humidity,Sea Level PressureIn,VisibilityMPH,Wind Direction,Wind SpeedMPH,Gust SpeedMPH,PrecipitationIn,Events,Conditions,WindDirDegrees,DateUTC
12:53 AM,30.9,21.9,69,29.97,10.0,West,6.9,-,N/A,,Clear,270,2012-03-04 06:53:00
1:53 AM,30.0,21.9,72,29.96,10.0,West,3.5,-,N/A,,Clear,260,2012-03-04 07:53:00
2:53 AM,28.0,21.9,78,29.95,10.0,WSW,3.5,-,N/A,,Clear,250,2012-03-04 08:53:00
3:53 AM,28.9,21.9,75,29.96,10.0,West,3.5,-,N/A,,Partly Cloudy,280,2012-03-04 09:53:00
4:53 AM,28.9,24.1,82,29.96,10.0,Calm,Calm,-,N/A,,Clear,0,2012-03-04 10:53:00
5:53 AM,27.0,24.1,89,29.97,10.0,Calm,Calm,-,N/A,,Mostly Cloudy,0,2012-03-04 11:53:00
6:53 AM,30.0,24.1,79,29.99,10.0,North,3.5,-,N/A,,Overcast,350,2012-03-04 12:53:00
7:53 AM,34.0,26.1,73,30.00,10.0,West,3.5,-,N/A,,Clear,260,2012-03-04 13:53:00
8:53 AM,39.0,24.1,55,30.01,10.0,WNW,5.8,-,N/A,,Clear,290,2012-03-04 14:53:00
9:53 AM,45.0,26.1,48,30.01,10.0,WNW,6.9,-,N/A,,Clear,290,2012-03-04 15:53:00
10:53 AM,48.9,24.1,38,30.00,10.0,WSW,8.1,-,N/A,,Clear,240,2012-03-04 16:53:00
11:53 AM,51.1,24.1,35,29.98,10.0,West,8.1,-,N/A,,Partly Cloudy,270,2012-03-04 17:53:00
12:53 PM,52.0,25.0,35,29.95,10.0,West,11.5,18.4,N/A,,Overcast,270,2012-03-04 18:53:00
1:53 PM,53.1,23.0,31,29.92,10.0,West,9.2,-,N/A,,Overcast,260,2012-03-04 19:53:00
2:53 PM,55.9,24.1,29,29.90,10.0,SW,6.9,-,N/A,,Overcast,220,2012-03-04 20:53:00
3:53 PM,54.0,26.1,34,29.87,10.0,SSW,8.1,-,N/A,,Overcast,210,2012-03-04 21:53:00
4:53 PM,53.1,27.0,37,29.86,10.0,South,8.1,-,N/A,,Overcast,190,2012-03-04 22:53:00
5:53 PM,52.0,28.0,40,29.85,10.0,South,6.9,-,N/A,,Overcast,190,2012-03-04 23:53:00
6:53 PM,50.0,28.0,43,29.84,10.0,Calm,Calm,-,N/A,,Overcast,0,2012-03-05 00:53:00
7:53 PM,50.0,28.9,44,29.85,10.0,SW,3.5,-,N/A,,Mostly Cloudy,220,2012-03-05 01:53:00
8:53 PM,48.0,32.0,54,29.88,10.0,Calm,Calm,-,N/A,,Mostly Cloudy,0,2012-03-05 02:53:00
9:53 PM,45.0,30.9,58,29.98,10.0,NNW,17.3,27.6,0.00,,Scattered Clouds,340,2012-03-05 03:53:00
10:53 PM,39.2,30.2,70,30.00,10.0,WNW,5.8,-,N/A,,Scattered Clouds,290,2012-03-05 04:53:00
11:53 PM,41.0,30.9,67,30.04,10.0,NW,11.5,-,N/A,,Clear,320,2012-03-05 05:53:00